When you browse on this site, cookies collect data to enhance your experience and personalize the content and advertising you see.
Visit our Privacy Policy to learn more. By continuing to use the site, you agree to this use of cookies and data.
  • In Hungary
  • List of Countries
  • For 7 days
  • Water Temperature
  • Satellite Maps
  • Weather Map
  • News
  • Weather Widgets
  • user-avatar
    Login

    Hourly Weather Konary

    Today, 21 May, Tuesday

    Time Temperature Precipitation Wind Pressure Humidity
    00:00 +12°C° 0 mm 1 mps 722 mmHg 85%
    01:00 +12°C° 0 mm 1 mps 722 mmHg 86%
    02:00 +12°C° 0 mm 1 mps 722 mmHg 86%
    03:00 +11°C° 0 mm 1 mps 722 mmHg 86%
    04:00 +11°C° 0 mm 1 mps 722 mmHg 86%
    05:00 +12°C° 0.1 mm 1 mps 722 mmHg 84%
    06:00 +14°C° 0.1 mm 1 mps 722 mmHg 82%
    07:00 +15°C° 0 mm 1 mps 721 mmHg 81%
    08:00 +15°C° 0.4 mm 1 mps 721 mmHg 81%
    09:00 +15°C° 0.4 mm 2 mps 721 mmHg 81%
    10:00 +16°C° 0.4 mm 2 mps 721 mmHg 81%
    11:00 +16°C° 0.8 mm 2 mps 721 mmHg 82%
    12:00 +16°C° 0.8 mm 2 mps 721 mmHg 82%
    13:00 +16°C° 0.8 mm 2 mps 721 mmHg 82%
    14:00 +16°C° 0.8 mm 2 mps 721 mmHg 85%
    15:00 +14°C° 0.8 mm 3 mps 720 mmHg 87%
    16:00 +14°C° 0.8 mm 3 mps 720 mmHg 90%
    17:00 +14°C° 0.3 mm 3 mps 720 mmHg 89%
    18:00 +14°C° 0.3 mm 4 mps 720 mmHg 89%
    19:00 +14°C° 0.3 mm 5 mps 720 mmHg 88%
    20:00 +13°C° 0.6 mm 5 mps 720 mmHg 89%
    21:00 +13°C° 0.6 mm 5 mps 720 mmHg 90%
    22:00 +13°C° 0.6 mm 5 mps 720 mmHg 91%
    23:00 +13°C° 0.7 mm 5 mps 720 mmHg 91%

    Tomorrow, 22 May, Wednesday

    Time Temperature Precipitation Wind Pressure Humidity
    00:00 +13°C° 0.7 mm 5 mps 720 mmHg 91%
    01:00 +13°C° 0.7 mm 5 mps 720 mmHg 91%
    02:00 +13°C° 0.5 mm 5 mps 720 mmHg 91%
    03:00 +13°C° 0.5 mm 5 mps 720 mmHg 92%
    04:00 +13°C° 0.5 mm 5 mps 720 mmHg 92%
    05:00 +13°C° 0.4 mm 4 mps 720 mmHg 92%
    06:00 +13°C° 0.4 mm 4 mps 720 mmHg 92%
    07:00 +13°C° 0.4 mm 4 mps 720 mmHg 92%
    08:00 +14°C° 0.6 mm 4 mps 721 mmHg 90%
    09:00 +14°C° 0.6 mm 4 mps 721 mmHg 88%
    10:00 +15°C° 0.6 mm 4 mps 721 mmHg 86%
    11:00 +14°C° 0.8 mm 4 mps 721 mmHg 87%
    12:00 +14°C° 0.8 mm 4 mps 722 mmHg 88%
    13:00 +14°C° 0.8 mm 3 mps 722 mmHg 89%
    14:00 +14°C° 0.4 mm 4 mps 722 mmHg 89%
    15:00 +15°C° 0.4 mm 4 mps 722 mmHg 88%
    16:00 +15°C° 0.4 mm 4 mps 722 mmHg 87%
    17:00 +14°C° 1 mm 5 mps 722 mmHg 89%
    18:00 +14°C° 1 mm 5 mps 722 mmHg 91%
    19:00 +13°C° 1 mm 5 mps 722 mmHg 93%
    20:00 +13°C° 1.3 mm 6 mps 722 mmHg 93%
    21:00 +13°C° 1.3 mm 6 mps 723 mmHg 94%
    22:00 +13°C° 1.3 mm 6 mps 723 mmHg 95%
    23:00 +13°C° 2 mm 6 mps 723 mmHg 95%

    Day after tomorrow, 23 May, Thursday

    Time Temperature Precipitation Wind Pressure Humidity
    00:00 +13°C° 2 mm 6 mps 724 mmHg 95%
    01:00 +13°C° 2 mm 5 mps 724 mmHg 95%
    02:00 +13°C° 1.6 mm 5 mps 724 mmHg 95%
    03:00 +13°C° 1.6 mm 5 mps 724 mmHg 95%
    04:00 +13°C° 1.6 mm 5 mps 724 mmHg 96%
    05:00 +13°C° 1.5 mm 5 mps 725 mmHg 95%
    06:00 +12°C° 1.5 mm 5 mps 725 mmHg 95%
    07:00 +12°C° 1.5 mm 5 mps 725 mmHg 95%
    08:00 +12°C° 2 mm 5 mps 726 mmHg 95%
    09:00 +12°C° 2 mm 5 mps 726 mmHg 95%
    10:00 +12°C° 2 mm 5 mps 726 mmHg 95%
    11:00 +11°C° 1.9 mm 6 mps 727 mmHg 95%
    12:00 +11°C° 1.9 mm 6 mps 727 mmHg 94%
    13:00 +10°C° 1.9 mm 6 mps 727 mmHg 94%
    14:00 +10°C° 0.5 mm 6 mps 727 mmHg 94%
    15:00 +10°C° 0.5 mm 5 mps 727 mmHg 94%
    16:00 +10°C° 0.5 mm 5 mps 727 mmHg 94%
    17:00 +10°C° 0.5 mm 5 mps 728 mmHg 94%
    18:00 +10°C° 0.5 mm 5 mps 728 mmHg 94%
    19:00 +10°C° 0.5 mm 5 mps 728 mmHg 94%
    20:00 +11°C° 0.2 mm 4 mps 728 mmHg 94%
    21:00 +10°C° 0.2 mm 4 mps 728 mmHg 93%
    22:00 +10°C° 0.2 mm 3 mps 728 mmHg 93%
    23:00 +10°C° 0.1 mm 3 mps 728 mmHg 93%

    24 May, Friday

    Time Temperature Precipitation Wind Pressure Humidity
    00:00 +10°C° 0.1 mm 3 mps 728 mmHg 93%
    01:00 +10°C° 0.1 mm 3 mps 728 mmHg 93%
    02:00 +9°C° 0 mm 2 mps 728 mmHg 93%
    03:00 +9°C° 0 mm 2 mps 728 mmHg 93%
    04:00 +8°C° 0 mm 2 mps 728 mmHg 93%
    05:00 +9°C° 0 mm 2 mps 728 mmHg 90%
    06:00 +10°C° 0 mm 3 mps 728 mmHg 87%
    07:00 +10°C° 0 mm 3 mps 729 mmHg 84%
    08:00 +11°C° 0 mm 3 mps 729 mmHg 77%
    09:00 +12°C° 0 mm 3 mps 729 mmHg 70%
    10:00 +13°C° 0 mm 3 mps 729 mmHg 63%
    11:00 +14°C° 0 mm 3 mps 729 mmHg 62%
    12:00 +16°C° 0 mm 2 mps 728 mmHg 61%
    13:00 +17°C° 0 mm 2 mps 728 mmHg 60%
    14:00 +17°C° 0 mm 2 mps 728 mmHg 60%
    15:00 +17°C° 0 mm 2 mps 728 mmHg 61%
    16:00 +17°C° 0 mm 2 mps 727 mmHg 62%
    17:00 +16°C° 0 mm 1 mps 727 mmHg 67%
    18:00 +15°C° 0 mm 1 mps 727 mmHg 72%
    19:00 +14°C° 0 mm 1 mps 727 mmHg 77%
    20:00 +13°C° 0 mm 1 mps 727 mmHg 79%
    21:00 +12°C° 0 mm 1 mps 727 mmHg 81%
    22:00 +11°C° 0 mm 1 mps 727 mmHg 83%
    23:00 +10°C° 0 mm 1 mps 727 mmHg 83%

    25 May, Saturday

    Time Temperature Precipitation Wind Pressure Humidity
    00:00 +10°C° 0 mm 1 mps 727 mmHg 84%
    01:00 +8°C° 0 mm 2 mps 727 mmHg 84%
    02:00 +8°C° 0 mm 2 mps 727 mmHg 85%
    03:00 +8°C° 0 mm 2 mps 727 mmHg 86%
    04:00 +8°C° 0 mm 2 mps 727 mmHg 87%
    05:00 +10°C° 0 mm 2 mps 727 mmHg 82%
    06:00 +13°C° 0 mm 2 mps 727 mmHg 77%
    07:00 +15°C° 0 mm 2 mps 727 mmHg 72%
    08:00 +16°C° 0 mm 3 mps 727 mmHg 68%
    09:00 +17°C° 0 mm 4 mps 727 mmHg 64%
    10:00 +19°C° 0 mm 4 mps 727 mmHg 60%
    11:00 +19°C° 0.4 mm 4 mps 727 mmHg 65%
    12:00 +19°C° 0.4 mm 5 mps 727 mmHg 69%
    13:00 +17°C° 0.4 mm 5 mps 727 mmHg 73%
    14:00 +17°C° 0.4 mm 5 mps 727 mmHg 73%
    15:00 +18°C° 0.4 mm 4 mps 726 mmHg 74%
    16:00 +18°C° 0.4 mm 4 mps 726 mmHg 74%
    17:00 +16°C° 0.1 mm 3 mps 726 mmHg 77%
    18:00 +14°C° 0.1 mm 3 mps 726 mmHg 80%
    19:00 +14°C° 0.1 mm 2 mps 727 mmHg 83%
    20:00 +13°C° 0 mm 2 mps 727 mmHg 84%
    21:00 +13°C° 0 mm 1 mps 727 mmHg 84%
    22:00 +12°C° 0 mm 1 mps 727 mmHg 85%
    23:00 +12°C° 0 mm 1 mps 727 mmHg 86%

    26 May, Sunday

    Time Temperature Precipitation Wind Pressure Humidity
    00:00 +10°C° 0 mm 2 mps 727 mmHg 86%
    01:00 +10°C° 0 mm 2 mps 727 mmHg 86%
    02:00 +10°C° 0 mm 2 mps 727 mmHg 87%
    03:00 +9°C° 0 mm 2 mps 727 mmHg 87%
    04:00 +9°C° 0 mm 2 mps 727 mmHg 87%
    05:00 +10°C° 0 mm 3 mps 727 mmHg 86%
    06:00 +10°C° 0 mm 3 mps 727 mmHg 85%
    07:00 +11°C° 0 mm 4 mps 727 mmHg 84%
    08:00 +12°C° 0.1 mm 4 mps 727 mmHg 79%
    09:00 +13°C° 0.1 mm 5 mps 727 mmHg 75%
    10:00 +14°C° 0.1 mm 6 mps 727 mmHg 70%
    11:00 +14°C° 0.1 mm 6 mps 727 mmHg 69%
    12:00 +14°C° 0.1 mm 6 mps 726 mmHg 67%
    13:00 +14°C° 0.1 mm 6 mps 726 mmHg 66%
    14:00 +14°C° 0.1 mm 6 mps 726 mmHg 67%
    15:00 +14°C° 0.1 mm 6 mps 726 mmHg 68%
    16:00 +14°C° 0.1 mm 6 mps 726 mmHg 70%
    17:00 +13°C° 0.1 mm 5 mps 726 mmHg 72%
    18:00 +12°C° 0.1 mm 4 mps 726 mmHg 74%
    19:00 +12°C° 0.1 mm 4 mps 726 mmHg 76%
    20:00 +11°C° 0 mm 3 mps 726 mmHg 78%
    21:00 +10°C° 0 mm 3 mps 726 mmHg 79%
    22:00 +10°C° 0 mm 2 mps 726 mmHg 81%
    23:00 +9°C° 0.4 mm 2 mps 726 mmHg 85%
    Show more